This is the latest recevied weather packets stored in our database for station/object KT2UU-13. If no packets are shown the sender has not sent any weather packets the latest 10 day(s).
| Time | Temp. | Humidity | Pressure | Rain* | Wind** | Luminosity | Snow |
|---|---|---|---|---|---|---|---|
| 1777773170 | 11.67° C | 65% | 1017 hPa | 0 mm | - | - | - |
| 1777772866 | 11.67° C | 66% | 1016.8 hPa | 0 mm | - | - | - |
| 1777772564 | 11.67° C | 68% | 1016.8 hPa | 0 mm | - | - | - |
| 1777772261 | 11.67° C | 68% | 1016.9 hPa | 0 mm | - | - | - |
| 1777771959 | 11.67° C | 67% | 1016.8 hPa | 0 mm | - | - | - |
| 1777771656 | 12.22° C | 64% | 1016.6 hPa | 0 mm | - | - | - |
| 1777771353 | 12.22° C | 64% | 1016.6 hPa | 0 mm | - | - | - |
| 1777771050 | 12.22° C | 61% | 1016.5 hPa | 0 mm | - | - | - |
| 1777770747 | 12.22° C | 60% | 1016.5 hPa | 0 mm | - | - | - |
| 1777770442 | 12.78° C | 60% | 1016.4 hPa | 0 mm | - | - | - |
| 1777770140 | 12.78° C | 59% | 1016.4 hPa | 0 mm | - | - | - |
| 1777769837 | 13.33° C | 57% | 1016.6 hPa | 0 mm | - | - | - |
| 1777769534 | 13.33° C | 56% | 1016.3 hPa | 0 mm | - | - | - |
| 1777769230 | 13.89° C | 54% | 1016.3 hPa | 0 mm | - | - | - |
| 1777768929 | 14.44° C | 51% | 1016.4 hPa | 0 mm | - | - | - |
| 1777768626 | 15° C | 49% | 1016.3 hPa | 0 mm | - | - | - |
| 1777768322 | 15° C | 48% | 1016.3 hPa | 0 mm | - | - | - |
| 1777768019 | 15° C | 47% | 1016.2 hPa | 0 mm | - | - | - |
| 1777767716 | 15.56° C | 47% | 1015.9 hPa | 0 mm | - | - | - |
| 1777767412 | 15.56° C | 46% | 1016.1 hPa | 0 mm | - | - | - |
| 1777767109 | 16.11° C | 45% | 1016 hPa | 0 mm | - | - | - |
| 1777766807 | 16.67° C | 43% | 1015.9 hPa | 0 mm | - | - | - |
| 1777766503 | 16.67° C | 42% | 1015.8 hPa | 0 mm | - | - | - |
| 1777766200 | 17.22° C | 41% | 1015.7 hPa | 0 mm | - | - | - |
| 1777765898 | 17.22° C | 39% | 1015.8 hPa | 0 mm | - | - | - |
* Rain latest hour (hover to see other rain measurements)
** Current wind speed in m/s (hover to see current wind gust speed)